Location: NJAA Observatory
(40.6819°N, 74.8979°W)
Time: 18:07:47
(UTC-04:00)

Iridium 56 - Visible Passes

Search period start: 23 April 2014 00:00
Search period end: 03 May 2014 00:00
Orbit: 776 x 779 km, 86.4° (Epoch: 23 April)

Date Brightness Start Highest point End Pass type
(mag) Time Alt. Az. Time Alt. Az. Time Alt. Az.
23 Apr 7.5 05:17:59 10° NNE 05:22:42 34° E 05:27:23 10° SE visible
24 Apr 8.4 04:45:17 10° NNE 04:48:55 19° ENE 04:52:33 10° ESE visible
26 Apr 6.7 05:17:50 10° N 05:22:54 49° E 05:27:54 10° SSE visible
27 Apr 7.8 04:44:48 10° NNE 04:49:11 27° E 04:53:33 10° SE visible
28 Apr 8.4 04:12:26 10° NE 04:15:21 15° ENE 04:18:14 10° ESE visible
29 Apr 5.9 05:17:48 10° N 05:23:01 71° E 05:28:12 10° S visible
30 Apr 7.1 04:44:32 10° NNE 04:49:24 38° E 04:54:13 10° SSE visible
01 May 8.0 04:11:42 10° NNE 04:15:38 21° ENE 04:19:33 10° SE visible
02 May 8.5 03:40:02 10° NE 03:41:44 12° ENE 03:43:26 10° E visible
02 May 5.5 05:17:53 10° N 05:23:06 80° W 05:28:18 10° S visible
